SHT2Z EGLL-EGCC

Flight info

Callsign SHT2Z
Flight time 0h 35m
Altitude 18000
Route ULTIB T420 ELVOS
Aircraft A320/M-SDE3FGHIRWY/LB1

Departure

Time 2026-05-06 18:28
Airport London Heathrow Airport (EGLL)

Arrival

Time 2026-05-06 19:04
Airport Manchester Airport (EGCC)
Time Latitude Longitude Altitude Speed Heading
2026-05-06 17:56 51.47187 -0.48602 91 ft 0 kts 269°
2026-05-06 17:57 51.47126 -0.48604 90 ft 0 kts 269°
2026-05-06 18:19 51.47126 -0.48603 87 ft 1 kts 269°
2026-05-06 18:19 51.47127 -0.48565 89 ft 4 kts 269°
2026-05-06 18:19 51.47127 -0.48531 87 ft 4 kts 265°
2026-05-06 18:20 51.47133 -0.48491 87 ft 4 kts 232°
2026-05-06 18:20 51.47150 -0.48475 89 ft 3 kts 179°
2026-05-06 18:20 51.47156 -0.48475 88 ft 0 kts 179°
2026-05-06 18:22 51.47141 -0.48475 92 ft 6 kts 179°
2026-05-06 18:23 51.47067 -0.48474 87 ft 13 kts 179°
2026-05-06 18:23 51.46967 -0.48472 87 ft 16 kts 179°
2026-05-06 18:23 51.46860 -0.48470 87 ft 16 kts 180°
2026-05-06 18:23 51.46751 -0.48469 87 ft 15 kts 181°
2026-05-06 18:24 51.46641 -0.48469 87 ft 13 kts 180°
2026-05-06 18:24 51.46603 -0.48470 88 ft 0 kts 180°
2026-05-06 18:26 51.46590 -0.48469 88 ft 6 kts 180°
2026-05-06 18:26 51.46521 -0.48469 89 ft 14 kts 180°
2026-05-06 18:27 51.46479 -0.48377 89 ft 0 kts 89°
2026-05-06 18:28 51.46480 -0.48228 89 ft 45 kts 89°
2026-05-06 18:28 51.46482 -0.47336 86 ft 112 kts 89°
2026-05-06 18:28 51.46486 -0.45811 125 ft 156 kts 89°
2026-05-06 18:28 51.46512 -0.44076 727 ft 157 kts 87°
2026-05-06 18:29 51.46535 -0.42313 1406 ft 161 kts 83°
2026-05-06 18:29 51.46863 -0.40524 1742 ft 177 kts 54°
2026-05-06 18:29 51.47653 -0.38898 2152 ft 194 kts 48°
2026-05-06 18:29 51.48595 -0.37154 2548 ft 217 kts 46°
2026-05-06 18:30 51.49585 -0.35364 3328 ft 223 kts 46°
2026-05-06 18:30 51.50593 -0.33510 4334 ft 220 kts 46°
2026-05-06 18:30 51.51801 -0.32137 5202 ft 221 kts 18°
2026-05-06 18:30 51.53353 -0.31824 5820 ft 234 kts 359°
2026-05-06 18:31 51.55074 -0.31906 5981 ft 256 kts 356°
2026-05-06 18:31 51.56869 -0.32049 6006 ft 260 kts 356°
2026-05-06 18:31 51.58683 -0.32214 6017 ft 262 kts 356°
2026-05-06 18:31 51.60510 -0.32417 6006 ft 262 kts 353°
2026-05-06 18:32 51.61674 -0.32910 6010 ft 263 kts 335°
2026-05-06 18:32 51.63245 -0.34404 6060 ft 261 kts 327°
2026-05-06 18:32 51.64751 -0.36044 6061 ft 263 kts 326°
2026-05-06 18:32 51.66270 -0.37722 6176 ft 266 kts 326°
2026-05-06 18:33 51.67794 -0.39414 7111 ft 267 kts 326°
2026-05-06 18:33 51.69337 -0.41108 8034 ft 270 kts 326°
2026-05-06 18:33 51.70902 -0.42812 8982 ft 272 kts 326°
2026-05-06 18:33 51.72519 -0.44439 9893 ft 277 kts 332°
2026-05-06 18:34 51.74272 -0.45868 10433 ft 292 kts 333°
2026-05-06 18:34 51.76175 -0.47350 10658 ft 315 kts 334°
2026-05-06 18:34 51.78187 -0.48883 11241 ft 323 kts 334°
2026-05-06 18:34 51.80239 -0.50441 11955 ft 328 kts 334°
2026-05-06 18:35 51.82316 -0.52024 12744 ft 331 kts 334°
2026-05-06 18:35 51.84409 -0.53630 13523 ft 334 kts 333°
2026-05-06 18:35 51.86488 -0.55241 14221 ft 338 kts 333°
2026-05-06 18:35 51.88620 -0.56900 14882 ft 342 kts 333°
2026-05-06 18:36 51.90776 -0.58580 15512 ft 346 kts 333°
2026-05-06 18:36 51.92953 -0.60279 16168 ft 349 kts 333°
2026-05-06 18:36 51.95152 -0.61995 16819 ft 352 kts 333°
2026-05-06 18:36 51.97359 -0.63719 17473 ft 356 kts 333°
2026-05-06 18:37 51.99605 -0.65476 17913 ft 359 kts 333°
2026-05-06 18:37 52.01867 -0.67245 18001 ft 365 kts 333°
2026-05-06 18:37 52.04170 -0.69047 18003 ft 369 kts 333°
2026-05-06 18:37 52.06487 -0.70860 18002 ft 369 kts 333°
2026-05-06 18:38 52.08796 -0.72667 17999 ft 369 kts 333°
2026-05-06 18:38 52.11104 -0.74478 18005 ft 369 kts 333°
2026-05-06 18:38 52.13417 -0.76297 18005 ft 369 kts 333°
2026-05-06 18:38 52.15732 -0.78120 18009 ft 369 kts 333°
2026-05-06 18:39 52.18045 -0.79950 18005 ft 369 kts 333°
2026-05-06 18:39 52.20350 -0.81774 18010 ft 369 kts 333°
2026-05-06 18:39 52.22663 -0.83601 18019 ft 369 kts 333°
2026-05-06 18:40 52.27116 -0.87584 18022 ft 369 kts 327°
2026-05-06 18:40 52.29308 -0.89760 18040 ft 369 kts 327°
2026-05-06 18:40 52.31492 -0.91931 18045 ft 368 kts 328°
2026-05-06 18:40 52.33677 -0.94105 18044 ft 368 kts 327°
2026-05-06 18:41 52.35865 -0.96290 18043 ft 368 kts 327°
2026-05-06 18:41 52.38045 -0.98470 18039 ft 368 kts 327°
2026-05-06 18:41 52.40230 -1.00659 18035 ft 368 kts 327°
2026-05-06 18:41 52.42412 -1.02844 18036 ft 368 kts 327°
2026-05-06 18:42 52.44596 -1.05032 18024 ft 368 kts 327°
2026-05-06 18:42 52.46762 -1.07205 18023 ft 368 kts 327°
2026-05-06 18:42 52.48947 -1.09397 18022 ft 369 kts 327°
2026-05-06 18:42 52.51137 -1.11600 18019 ft 369 kts 327°
2026-05-06 18:43 52.53322 -1.13802 18022 ft 369 kts 327°
2026-05-06 18:43 52.55509 -1.16009 18022 ft 369 kts 327°
2026-05-06 18:43 52.57690 -1.18216 18018 ft 368 kts 327°
2026-05-06 18:43 52.59873 -1.20421 18014 ft 368 kts 327°
2026-05-06 18:44 52.62052 -1.22617 18009 ft 368 kts 327°
2026-05-06 18:44 52.64244 -1.24826 18010 ft 368 kts 327°
2026-05-06 18:44 52.66413 -1.27023 18009 ft 368 kts 327°
2026-05-06 18:44 52.68595 -1.29236 18012 ft 368 kts 327°
2026-05-06 18:45 52.70753 -1.31427 18011 ft 368 kts 327°
2026-05-06 18:45 52.72906 -1.33612 18005 ft 362 kts 327°
2026-05-06 18:45 52.74964 -1.35701 18054 ft 333 kts 327°
2026-05-06 18:45 52.76917 -1.37688 18059 ft 328 kts 327°
2026-05-06 18:46 52.78854 -1.39666 18056 ft 326 kts 327°
2026-05-06 18:46 52.80781 -1.41637 18055 ft 325 kts 327°
2026-05-06 18:46 52.82692 -1.43596 18054 ft 318 kts 327°
2026-05-06 18:46 52.84559 -1.45516 18057 ft 315 kts 327°
2026-05-06 18:47 52.86417 -1.47429 18057 ft 314 kts 327°
2026-05-06 18:47 52.88270 -1.49336 17576 ft 320 kts 327°
2026-05-06 18:47 52.90074 -1.51187 17082 ft 313 kts 327°
2026-05-06 18:47 52.91903 -1.53064 16474 ft 306 kts 327°
2026-05-06 18:48 52.93699 -1.54910 15822 ft 302 kts 327°
2026-05-06 18:48 52.95472 -1.56733 15262 ft 298 kts 327°
2026-05-06 18:48 52.97235 -1.58548 14843 ft 298 kts 327°
2026-05-06 18:48 52.98983 -1.60351 14441 ft 296 kts 327°
2026-05-06 18:49 53.00711 -1.62135 14057 ft 297 kts 327°
2026-05-06 18:49 53.02468 -1.63954 13621 ft 298 kts 327°
2026-05-06 18:49 53.04224 -1.65778 13187 ft 297 kts 326°
2026-05-06 18:49 53.05826 -1.67898 12788 ft 295 kts 314°
2026-05-06 18:50 53.07185 -1.70445 12452 ft 292 kts 310°
2026-05-06 18:50 53.08480 -1.72963 12261 ft 286 kts 310°
2026-05-06 18:50 53.09765 -1.75454 12122 ft 279 kts 310°
2026-05-06 18:50 53.10981 -1.77812 11978 ft 260 kts 310°
2026-05-06 18:51 53.12142 -1.80064 11797 ft 253 kts 310°
2026-05-06 18:51 53.13279 -1.82269 11550 ft 250 kts 310°
2026-05-06 18:51 53.14408 -1.84459 11289 ft 248 kts 310°
2026-05-06 18:51 53.15531 -1.86636 11002 ft 248 kts 310°
2026-05-06 18:52 53.16647 -1.88807 10711 ft 247 kts 310°
2026-05-06 18:52 53.17760 -1.90982 10456 ft 246 kts 310°
2026-05-06 18:52 53.18867 -1.93147 10206 ft 244 kts 310°
2026-05-06 18:52 53.19960 -1.95280 9949 ft 243 kts 310°
2026-05-06 18:53 53.21028 -1.97366 9675 ft 242 kts 310°
2026-05-06 18:53 53.22119 -1.99496 9350 ft 242 kts 310°
2026-05-06 18:53 53.23034 -2.01797 9032 ft 241 kts 290°
2026-05-06 18:53 53.23184 -2.04583 8631 ft 245 kts 259°
2026-05-06 18:54 53.22685 -2.07281 8403 ft 242 kts 251°
2026-05-06 18:54 53.22088 -2.09907 8142 ft 241 kts 250°
2026-05-06 18:54 53.21487 -2.12485 7891 ft 240 kts 250°
2026-05-06 18:54 53.20879 -2.15074 7629 ft 238 kts 250°
2026-05-06 18:55 53.20275 -2.17636 7372 ft 237 kts 250°
2026-05-06 18:55 53.19679 -2.20160 7126 ft 236 kts 250°
2026-05-06 18:55 53.19078 -2.22697 6847 ft 235 kts 250°
2026-05-06 18:55 53.18476 -2.25233 6545 ft 235 kts 250°
2026-05-06 18:56 53.17875 -2.27756 6236 ft 234 kts 250°
2026-05-06 18:56 53.17276 -2.30280 5916 ft 234 kts 250°
2026-05-06 18:56 53.16683 -2.32802 5601 ft 233 kts 250°
2026-05-06 18:56 53.16100 -2.35302 5286 ft 233 kts 250°
2026-05-06 18:57 53.15533 -2.37823 4976 ft 232 kts 250°
2026-05-06 18:57 53.14981 -2.40340 4666 ft 231 kts 250°
2026-05-06 18:57 53.14439 -2.42859 4344 ft 230 kts 250°
2026-05-06 18:57 53.13911 -2.45379 4117 ft 231 kts 252°
2026-05-06 18:58 53.13787 -2.48005 3912 ft 228 kts 283°
2026-05-06 18:58 53.14523 -2.50253 3693 ft 221 kts 318°
2026-05-06 18:58 53.15740 -2.51750 3491 ft 215 kts 329°
2026-05-06 18:58 53.17012 -2.53058 3294 ft 214 kts 331°
2026-05-06 18:59 53.18395 -2.53760 3086 ft 205 kts
2026-05-06 18:59 53.19800 -2.53596 2999 ft 200 kts
2026-05-06 18:59 53.21150 -2.53309 2998 ft 193 kts 11°
2026-05-06 18:59 53.22383 -2.52680 2993 ft 177 kts 33°
2026-05-06 19:00 53.23291 -2.51436 3029 ft 163 kts 53°
2026-05-06 19:00 53.24012 -2.49956 3011 ft 163 kts 54°
2026-05-06 19:00 53.24722 -2.48503 2863 ft 162 kts 53°
2026-05-06 19:00 53.25407 -2.47098 2665 ft 160 kts 54°
2026-05-06 19:01 53.26122 -2.45632 2459 ft 160 kts 55°
2026-05-06 19:01 53.26812 -2.44215 2245 ft 159 kts 54°
2026-05-06 19:01 53.27506 -2.42791 2027 ft 158 kts 54°
2026-05-06 19:01 53.28197 -2.41371 1825 ft 157 kts 54°
2026-05-06 19:02 53.28889 -2.39946 1606 ft 158 kts 54°
2026-05-06 19:02 53.29560 -2.38568 1388 ft 147 kts 54°
2026-05-06 19:02 53.30191 -2.37285 1145 ft 140 kts 52°
2026-05-06 19:02 53.30782 -2.36034 950 ft 136 kts 55°
2026-05-06 19:03 53.31380 -2.34808 814 ft 138 kts 52°
2026-05-06 19:03 53.31978 -2.33565 654 ft 138 kts 53°
2026-05-06 19:03 53.32587 -2.32337 464 ft 137 kts 53°
2026-05-06 19:03 53.33170 -2.31118 288 ft 137 kts 51°
2026-05-06 19:04 53.33732 -2.29950 231 ft 112 kts 51°
2026-05-06 19:04 53.34116 -2.29160 231 ft 63 kts 51°
2026-05-06 19:04 53.34326 -2.28736 225 ft 45 kts 49°
2026-05-06 19:04 53.34516 -2.28529 228 ft 31 kts 22°
2026-05-06 19:05 53.34695 -2.28407 230 ft 19 kts 32°
2026-05-06 19:05 53.34790 -2.28237 232 ft 21 kts 50°
2026-05-06 19:05 53.34884 -2.28053 229 ft 20 kts 52°
2026-05-06 19:05 53.34976 -2.27854 229 ft 23 kts 52°
2026-05-06 19:06 53.35080 -2.27637 233 ft 24 kts 51°
2026-05-06 19:06 53.35189 -2.27409 237 ft 25 kts 51°
2026-05-06 19:06 53.35286 -2.27220 240 ft 17 kts 41°
2026-05-06 19:06 53.35388 -2.27213 246 ft 16 kts 330°
2026-05-06 19:07 53.35479 -2.27331 249 ft 17 kts 321°
2026-05-06 19:07 53.35546 -2.27422 247 ft 21 kts 321°
2026-05-06 19:07 53.35693 -2.27617 247 ft 18 kts 335°
2026-05-06 19:07 53.35800 -2.27711 251 ft 17 kts 318°
2026-05-06 19:08 53.35909 -2.27726 255 ft 17 kts
2026-05-06 19:08 53.36005 -2.27767 255 ft 13 kts 311°
2026-05-06 19:08 53.36082 -2.27876 255 ft 16 kts 322°
2026-05-06 19:08 53.36178 -2.28004 255 ft 19 kts 316°
2026-05-06 19:09 53.36280 -2.28175 255 ft 19 kts 314°
2026-05-06 19:09 53.36373 -2.28333 255 ft 14 kts 314°
2026-05-06 19:09 53.36431 -2.28462 255 ft 16 kts 301°
2026-05-06 19:09 53.36498 -2.28621 255 ft 18 kts 315°
2026-05-06 19:10 53.36580 -2.28772 255 ft 18 kts 302°
2026-05-06 19:10 53.36649 -2.28895 255 ft 14 kts 339°
2026-05-06 19:10 53.36722 -2.29000 255 ft 15 kts 314°
2026-05-06 19:10 53.36818 -2.29013 255 ft 16 kts 25°
2026-05-06 19:11 53.36860 -2.28950 255 ft 1 kts 49°
2026-05-06 19:11 53.36859 -2.28928 255 ft 1 kts 116°
2026-05-06 19:11 53.36839 -2.28888 255 ft 1 kts 135°
2026-05-06 19:11 53.36836 -2.28883 255 ft 0 kts 135°